Regional Weather Roundup
Issued by NWS

Home | Current Version | Previous Version | Text Only | Print | Product List | Glossary Off
Versions: 1 2 3 4 5 6 7 8 9 10 11 12 13 14 15 16 17 18 19 20 21 22 23 24 25 26 27 28 29 30 31 32 33 34 35 36 37 38 39 40 41 42 43 44 45 46 47 48 49 50

000
ASUS43 KIND 261059
RWRIN

WEATHER ROUNDUP FOR INDIANA
NATIONAL WEATHER SERVICE INDIANAPOLIS IN
700 AM EDT TUE MAY 26 2015

NOTE: "FAIR" INDICATES FEW OR NO CLOUDS BELOW 12,000 FEET WITH NO
SIGNIFICANT WEATHER AND/OR OBSTRUCTIONS TO VISIBILITY.

* - STATION DOES NOT REPORT WEATHER SUCH AS PRECIPITATION OR FOG.

+ - STATION NOT QUALITY CONTROLLED BY THE NATIONAL WEATHER SERVICE.
    USE DATA WITH CAUTION...ESPECIALLY DEWPOINT AND RELATIVE
    HUMIDITY OBSERVATIONS.

INZ001>003-010>013-019-020-261200-
NORTHWEST INDIANA

CITY           SKY/WX    TMP DP  RH WIND       PRES   REMARKS
GARY /AIRPORT/ CLOUDY    70  66  88 S9        29.97R
RENSSELAER +   CLOUDY    68  66  94 S9        29.99S FOG

$$

LMZ046-743>745-261200-
SOUTHERN LAKE MICHIGAN

STATION/POSITION TIME  TEMP    WIND        PRES    WAVE
                       AIR SEA DIR/SP/G            HT
                 (UTC) (F)     (DEG/KT/KT) (MB)    (FT)
BURNS HARBOR     1000   67     180/  9/ 17 1015.2R
MICHIGAN CITY    1000   67     150/ 13/ 18   N/A
5NW MICH CITY    1000   60 52  200/  8/ 10   N/A     1

$$

INZ004-005-014>016-021>024-261200-
NORTH CENTRAL INDIANA

CITY           SKY/WX    TMP DP  RH WIND       PRES   REMARKS
ELKHART        CLOUDY    66  64  94 S7        30.03
GOSHEN         CLOUDY    66  63  90 S7        30.03R FOG
PERU/GRISSOM   MOCLDY    66  64  94 S9        30.02S
SOUTH BEND     CLOUDY    67  64  90 S10       30.01R

$$

INZ006>009-017-018-025>027-261200-
NORTHEAST INDIANA

CITY           SKY/WX    TMP DP  RH WIND       PRES   REMARKS
ANGOLA *+      CLOUDY    64  64 100 S8        30.05R
FORT WAYNE     CLOUDY    65  63  93 S10       30.07R

$$

INZ028-029-035-036-043>045-051>053-261200-
WEST CENTRAL INDIANA

CITY           SKY/WX    TMP DP  RH WIND       PRES   REMARKS
CRAWFORDSVL +  CLOUDY    65  61  85 S10       30.02R
GREENCASTLE +  CLOUDY    66  61  82 S12G17    30.04R
LAFAYETTE      CLOUDY    67  64  90 S7        30.01S
TERRE HAUTE    CLOUDY    69  66  90 S9        30.01S

$$

INZ030>032-037>040-046>048-054>057-064-065-261200-
CENTRAL INDIANA

CITY           SKY/WX    TMP DP  RH WIND       PRES   REMARKS
COLUMBUS       CLEAR     64  63  94 S7        30.06
INDIANAPOLIS   CLOUDY    67  63  87 SE10      30.03S
-EAGLE CREEK   CLOUDY    67  64  90 S5        30.03F
KOKOMO *+      MOCLDY    66  63  88 S10       30.03F
MT COMFORT *+  CLOUDY    66 N/A N/A S8        30.06S
SHELBYVILLE    MOCLDY    69  64  84 S8        30.06R

$$

INZ033-034-041-042-049-050-058-059-261200-
EAST CENTRAL INDIANA

CITY           SKY/WX    TMP DP  RH WIND       PRES   REMARKS
MUNCIE         PTCLDY    67  64  90 S7        30.06S

$$

INZ060-061-067>069-081>083-085>088-261200-
SOUTHWEST INDIANA

CITY           SKY/WX    TMP DP  RH WIND       PRES   REMARKS
EVANSVILLE     MOCLDY    68  65  90 SE8       30.01F
HUNTINGBURG *+ CLOUDY    66  63  88 S7        30.05S

$$

INZ062-063-066-070>080-084-089>092-261200-
SOUTH CENTRAL AND SOUTHEAST INDIANA

CITY           SKY/WX    TMP DP  RH WIND       PRES   REMARKS
BLOOMINGTON    CLOUDY    66  64  93 S7        30.04S
MADISON *+     MOCLDY    64  63  94 S6        30.11S
SEYMOUR +      MOCLDY    66  64  94 SE6       30.07R

$$




USA.gov is the U.S. government's official web portal to all federal, state and local government web resources and services.